Regional Weather Roundup
Issued by NWS

Home | Current Version | Previous Version | Text Only | Print | Product List | Glossary On
Versions: 1 2 3 4 5 6 7 8 9 10 11 12 13 14 15 16 17 18 19 20 21 22 23 24 25 26 27 28 29 30 31 32 33 34 35 36 37 38 39 40 41 42 43 44 45 46 47 48 49 50
000
ASUS44 KMEG 031610
RWRTN
TENNESSEE HOURLY STATE WEATHER ROUNDUP
NATIONAL WEATHER SERVICE MEMPHIS TN
1000 AM CST SAT DEC 03 2016

TNZ002-004-019-021-049-052-054-088>092-031700-
WEST TENNESSEE

CITY           SKY/WX    TMP DP  RH WIND       PRES   REMARKS
MEMPHIS INTL   CLOUDY    48  32  53 E10       30.34R
NWS MEMPHIS      N/A     46 N/A N/A MISG        N/A
JACKSON        CLOUDY    45  34  65 E7        30.35R
DYERSBURG      CLOUDY   N/A N/A N/A E8        30.35R
UNION CITY     SUNNY     41  34  75 E5        30.36R
PARIS          SUNNY     39  30  70 E6        30.36R WCI  35
HUNTINGDON     SUNNY     43  32  65 E8        30.36R
LEXINGTON      SUNNY     43  34  70 NE6       30.35R
$$

TNZ008-025-027-028-033-062-065-066-031700-
NORTH MIDDLE TENNESSEE

CITY           SKY/WX    TMP DP  RH WIND       PRES   REMARKS
NASHVILLE      CLOUDY    44  31  60 E8        30.35R
PORTLAND       SUNNY     39  34  81 NE5       30.35S
CLARKSVILLE    PTSUNNY   40  30  67 E9        30.38R WCI  34
SMYRNA         CLOUDY    43  32  65 E6        30.36R
CROSSVILLE     CLOUDY    39  29  67 NE9       30.29F WCI  33
$$

TNZ061-075-076-078-094-096-097-031700-
SOUTH MIDDLE TENNESSEE

CITY           SKY/WX    TMP DP  RH WIND       PRES   REMARKS
FAYETTEVILLE   SUNNY     45  34  65 NE7       30.31S
TULLAHOMA      SUNNY     43  30  61 NE7       30.31S
WINCHESTER     SUNNY     43  34  70 N7        30.31S
MCMINNVILLE    SUNNY     41  30  65 E7        30.31F
COLUMBIA       SUNNY     43  39  87 NE5       30.32R
SHELBYVILLE    SUNNY     45  34  65 E5        30.34R
$$

TNZ017-018-042-046-047-031700-
NORTHEAST TENNESSEE

CITY           SKY/WX    TMP DP  RH WIND       PRES   REMARKS
TRI CITIES     PTSUNNY   40  29  64 N3        30.33S
ELIZABETHTON   MOSUNNY   37  32  81 CALM      30.32F
$$

TNZ012-013-036-069-073-074-031700-
CENTRAL EAST TENNESSEE

CITY           SKY/WX    TMP DP  RH WIND       PRES   REMARKS
KNOXVILLE      CLOUDY    42  32  67 NE9       30.32F
OAK RIDGE      MOSUNNY   43  30  60 VRB6      30.34F
DOWNTOWN KNOXV SUNNY     43  34  70 VRB5      30.34F
GATLINBURG     SUNNY     37  32  81 VRB3      30.33F
MORRISTOWN     SUNNY     41  30  65 VRB5      30.32F
JACKSBORO      SUNNY     41  30  65 NE5       30.36F
$$

TNZ083-085-099-031700-
SOUTHEAST TENNESSEE

CITY           SKY/WX    TMP DP  RH WIND       PRES   REMARKS
CHATTANOOGA    CLOUDY    45  32  60 N10       30.32S
$$

SKY/WX REPORTED AS FAIR MEANS FEW OR NO CLOUDS BELOW
12 THOUSAND FEET.





USA.gov is the U.S. government's official web portal to all federal, state and local government web resources and services.